Vorticity
nan nan nan nan nan nan nan nan nan nan nan nan nan nan nan nan nan nan nan nan nan nan nan nan nan nan nan nan nan nan nan nan nan nan nan nan nan nan nan nan nan nan nan nan nan nan nan nan nan
nan 1 3 7 5 5 7 8 7 8 8 9 2 7 8 6 11 14 10 13 6 4 5 8 8 6 6 5 4 4 4 4 5 5 5 5 7 7 6 7 7 8 8 6 6 6 6 5 nan
nan 2 7 8 4 4 7 8 7 12 9 4 1 5 10 7 12 6 9 12 4 4 6 10 8 5 5 5 4 4 4 4 5 5 6 6 6 5 7 7 7 8 7 7 6 6 7 5 nan
nan 6 7 6 7 7 5 7 9 5 5 6 6 5 9 13 10 9 13 6 4 3 8 12 7 4 3 4 4 4 4 4 5 6 6 6 6 7 6 7 7 5 5 7 7 7 6 5 nan
nan 7 8 5 6 8 10 9 7 4 7 7 5 5 7 14 14 13 6 5 4 4 7 10 9 5 5 4 4 4 4 5 5 7 6 6 5 6 7 7 6 6 7 6 7 7 5 6 nan
nan 7 4 5 5 7 10 12 6 6 7 5 7 9 9 11 9 7 5 6 6 6 6 9 9 5 6 6 4 5 4 5 5 6 7 6 5 5 7 7 6 7 6 7 6 6 5 5 nan
nan 8 8 6 5 7 9 8 8 9 5 10 4 3 9 9 9 7 6 7 8 6 5 7 8 10 7 4 6 5 4 5 4 5 6 5 6 5 6 6 6 6 6 6 6 6 4 4 nan
nan 7 6 5 7 8 10 6 7 9 8 6 5 9 12 13 8 5 6 7 7 7 5 6 7 7 7 11 10 4 5 4 5 5 4 6 5 6 5 5 6 7 6 6 6 5 5 4 nan
nan 7 8 7 6 7 7 6 4 10 11 5 12 14 19 13 4 4 4 6 6 5 6 7 7 7 8 9 11 10 6 4 5 5 4 3 4 7 7 7 9 5 5 6 6 6 5 4 nan
nan 6 6 10 4 6 8 8 7 8 3 4 10 18 15 6 4 5 3 6 6 2 2 5 7 8 7 7 7 8 6 6 8 6 6 6 7 7 7 8 8 6 7 5 5 6 3 1 nan
nan 4 5 5 9 11 6 7 10 5 6 13 11 9 6 3 3 4 6 6 6 3 3 6 5 7 6 6 6 7 8 8 8 6 7 7 5 6 6 6 7 10 7 5 7 5 7 7 nan
nan 5 6 5 13 10 8 7 9 4 13 21 17 7 3 4 5 5 6 7 6 6 5 5 6 5 5 6 8 7 7 7 7 8 6 6 7 7 6 7 7 7 7 7 6 7 7 7 nan
nan 10 7 8 6 6 7 6 8 9 17 17 11 6 4 4 4 5 5 8 8 8 6 5 5 5 5 5 6 7 7 7 7 8 7 7 7 7 7 7 7 7 6 6 7 7 7 6 nan
nan 11 12 15 7 6 6 2 5 12 13 11 7 4 4 6 4 4 6 7 7 8 8 7 6 5 5 6 7 6 6 7 7 7 8 7 7 7 7 8 7 7 7 7 8 7 8 7 nan
nan 7 14 12 14 10 6 5 11 11 10 9 4 5 6 5 7 6 5 5 6 6 9 8 6 7 6 5 6 7 8 7 7 8 9 8 7 8 7 7 8 8 7 8 8 8 7 7 nan
nan 8 7 11 8 9 9 5 18 13 8 5 6 6 7 8 4 5 6 5 7 8 8 8 8 8 7 5 6 7 8 8 8 8 9 8 8 7 7 7 7 8 7 8 7 7 8 8 nan
nan 9 2 12 10 5 4 1 10 18 6 5 8 7 7 7 7 7 8 8 8 6 7 7 8 8 7 5 7 9 8 7 8 8 8 9 8 7 7 6 8 9 8 8 8 8 8 8 nan
nan 8 11 6 6 7 5 7 2 14 9 8 6 8 9 10 9 8 8 7 8 9 8 6 9 8 5 5 7 8 7 8 8 8 8 8 8 8 6 7 9 8 8 8 9 10 7 8 nan
nan 7 5 9 9 9 7 9 14 13 8 7 9 11 8 9 13 11 9 8 7 7 8 6 5 6 7 5 5 8 9 7 7 10 9 7 8 9 7 8 9 8 8 8 7 8 9 7 nan
nan 5 9 10 10 7 10 13 21 12 11 14 8 8 7 6 13 12 10 9 9 7 6 6 5 6 5 4 6 9 11 10 10 10 11 9 9 10 9 8 8 7 7 9 8 5 7 10 nan
nan 9 8 5 10 10 11 11 13 9 7 12 12 10 15 10 5 11 11 8 7 9 8 7 7 5 6 4 3 5 6 9 10 9 12 12 9 9 10 6 7 8 7 7 7 8 6 8 nan
nan 12 6 7 9 11 9 12 4 10 13 11 10 9 10 12 7 9 10 10 8 8 7 8 9 7 7 6 5 5 5 5 7 9 8 12 11 8 7 8 7 6 7 8 8 8 6 8 nan
nan 8 11 13 8 9 7 15 5 6 12 13 15 14 10 12 9 9 9 10 8 10 10 10 8 8 9 8 6 5 4 7 9 11 10 9 11 10 8 8 8 6 8 9 9 8 7 5 nan
nan 9 9 12 10 8 13 6 8 10 6 7 12 15 16 12 9 10 10 9 12 10 10 11 10 8 9 9 8 6 3 4 5 8 9 8 10 12 11 9 8 7 6 9 9 8 8 6 nan
nan 8 8 5 13 7 7 10 9 8 9 6 4 15 20 12 9 9 11 9 10 11 9 9 9 9 9 9 9 8 7 6 5 5 8 8 7 10 12 9 8 8 9 7 8 10 9 9 nan
nan 7 7 11 7 8 7 8 9 11 9 13 10 13 13 10 11 11 9 9 10 9 8 8 8 9 9 8 10 9 9 7 9 8 7 8 8 9 11 10 9 10 9 10 8 8 8 9 nan
nan 9 9 6 8 13 7 4 10 7 9 9 9 13 13 11 11 8 9 11 10 11 10 8 7 8 10 8 7 9 10 8 8 8 6 8 8 9 11 11 9 9 10 9 10 9 10 8 nan
nan 5 6 11 14 5 8 13 9 0 8 9 9 9 10 8 10 11 10 10 9 11 10 9 11 10 8 10 9 9 9 8 8 9 8 7 7 8 9 10 10 11 9 9 7 7 11 8 nan
nan 7 10 15 10 11 8 10 14 7 7 7 8 11 12 10 9 10 10 10 10 9 11 10 9 11 10 10 9 9 10 10 9 7 9 9 9 9 9 10 9 10 9 8 7 9 9 9 nan
nan nan nan nan nan nan nan nan nan nan nan nan nan nan nan nan nan nan nan nan nan nan nan nan nan nan nan nan nan nan nan nan nan nan nan nan nan nan nan nan nan nan nan nan nan nan nan nan nan
CAPE
931 725 483 605 14 0 29 398 960 489 142 122 111 279 314 799 222 33 228 677 1019 1368 1914 2093 2550 2643 1997 2411 2277 2094 1947 1829 1842 1934 1886 1680 2020 2415 2462 1865 2332 2292 2379 2272 2141 1933 2120 1675 1102
278 369 1017 424 0 6 47 155 522 432 50 9 43 332 730 1136 1282 682 759 1055 839 1575 1802 2057 2647 2702 2366 2207 2127 2070 1869 1783 2184 2174 2001 2219 2300 2343 2039 2286 2231 2013 2213 2154 1290 2072 2244 1149 994
609 734 329 62 58 143 119 160 143 92 51 0 328 516 986 1151 822 476 832 1088 844 1455 1846 2179 2998 2825 2523 2396 2271 2156 1787 1977 2463 2132 1827 1996 2271 2232 2339 2374 2065 1846 2063 1888 1195 2168 2156 1896 1455
51 888 451 204 341 517 457 250 582 522 370 331 726 750 903 1024 555 917 1118 1270 1061 1590 1759 2623 3055 2296 2166 2246 2323 2203 1820 2203 1952 1804 1512 1753 1917 2181 2234 2177 2144 2061 1924 1904 1380 1830 1854 2062 1990
1130 153 60 427 356 500 604 639 251 831 778 890 522 798 854 853 1000 1029 1247 1369 1357 1552 1661 2224 3129 2969 2532 2226 2261 1698 1788 2490 1717 1868 1566 1552 1645 2101 1989 2088 2040 2074 1993 1451 940 1840 2034 1814 1698
377 10 32 152 106 182 338 789 771 1278 1013 789 780 731 740 935 1025 1166 1223 1315 1464 1504 1649 1949 2873 2874 2727 2337 2236 2513 1812 2157 1762 1878 1939 1745 1740 1824 1995 1991 1979 1984 2112 1160 1005 1977 1738 1493 1784
978 0 117 408 379 611 299 925 1244 1031 824 830 701 773 862 968 1082 1151 1151 1355 1430 1529 1733 2002 2004 2169 2332 2806 2599 2465 1865 2003 2214 1989 1940 1956 2210 1898 2166 1947 1784 1628 2117 1696 1932 1893 1765 1520 1204
306 35 154 191 383 444 504 400 626 1083 937 696 710 713 774 901 1048 821 1090 1164 1320 1577 1684 1639 1575 1836 2021 2186 2580 2476 1695 2019 2088 2133 1914 2020 1921 2044 1984 1962 2037 1804 1883 1935 1801 1678 998 1060 1342
39 20 192 218 411 486 298 381 316 634 962 903 811 846 881 978 811 811 905 1080 1397 1591 1579 1579 1596 1519 1815 1831 2277 2325 1986 2086 1647 1917 1760 2343 850 1221 1717 1926 1873 1889 1777 1819 1844 1437 1086 1449 1374
13 70 6 315 356 318 278 155 14 792 891 898 989 1052 954 793 865 734 676 881 715 1055 1471 1417 1310 1461 1722 2134 1938 1513 1327 1952 1210 1105 988 916 486 632 1127 1745 1861 1786 1831 1796 1681 1547 1335 1106 1031
0 0 18 282 408 370 286 49 240 771 746 897 1013 1046 917 978 813 608 453 495 554 839 1358 1287 1202 1254 1478 1600 1337 1067 922 1254 1193 1217 878 736 419 807 997 996 1539 1039 1833 1261 1539 1502 1015 499 735
2 7 85 614 690 463 215 108 56 493 170 889 1050 945 968 1018 917 692 621 604 693 1031 1222 1257 1213 1199 1127 962 934 808 794 902 1052 1027 885 709 293 296 498 534 788 778 781 673 689 812 675 320 212
34 12 187 324 799 468 194 156 200 417 1110 924 1038 925 1057 1054 1002 861 814 815 782 1019 1127 1171 1154 1102 929 801 696 596 589 715 802 657 733 462 185 104 303 204 273 474 567 541 585 456 454 185 132
0 2 19 599 692 583 375 456 178 612 1096 990 1018 975 1075 1050 1071 974 978 841 771 998 1046 1047 1068 944 833 737 670 583 389 336 433 423 487 557 176 43 154 138 148 118 316 431 290 284 172 243 201
0 0 34 350 555 580 291 210 276 579 888 1255 1075 1112 1143 1092 1080 1050 1053 851 751 847 898 934 897 744 637 785 664 479 412 372 235 271 298 436 238 58 150 128 65 70 131 354 323 184 168 87 143
0 0 0 22 562 494 251 292 36 600 696 1100 1349 1321 1321 1208 1160 1077 1066 1024 894 739 746 840 954 591 419 783 779 694 507 507 375 253 276 234 354 82 52 123 119 77 137 174 285 295 153 158 85
0 0 0 0 496 538 348 259 2 342 575 788 837 1140 1352 1271 1231 1197 1134 1057 959 816 708 779 774 326 266 366 808 663 504 401 462 436 421 404 331 209 73 80 145 131 193 117 205 223 86 90 112
0 0 0 0 60 491 380 322 172 157 346 714 697 735 739 1070 1115 1120 1127 1120 908 746 753 790 625 160 119 214 388 318 299 262 183 227 365 430 486 277 100 92 131 255 253 166 190 150 133 138 134
0 0 0 0 0 0 0 0 0 108 181 552 613 719 726 610 685 916 887 1023 754 702 636 664 605 194 29 133 117 94 331 301 127 133 343 279 500 421 165 154 160 228 200 184 141 90 120 54 93
0 0 0 0 0 0 0 0 0 75 132 162 495 690 740 634 502 606 660 791 586 635 693 666 555 115 42 39 135 220 223 84 211 176 254 338 257 429 204 135 144 218 101 142 119 106 83 64 72
0 0 0 0 0 0 0 0 0 39 110 140 220 421 464 664 591 434 567 650 547 503 564 588 522 199 131 31 57 29 0 0 2 32 180 244 243 174 174 99 123 147 49 62 158 140 101 45 85
0 0 0 0 0 0 0 0 0 0 0 152 165 432 100 296 568 552 511 532 555 464 436 529 415 319 142 97 147 209 194 237 37 54 168 262 198 254 171 121 113 145 76 92 143 164 138 49 34
0 0 0 0 0 0 0 0 0 0 0 0 0 165 488 0 141 552 624 544 557 549 374 359 325 272 234 113 196 281 280 168 35 26 102 356 268 297 260 177 135 124 137 99 53 180 171 70 67
0 0 0 0 0 0 0 0 0 0 0 0 0 4 144 19 0 438 609 705 654 593 476 364 232 235 174 109 169 240 336 172 181 86 76 196 346 319 329 274 198 227 249 308 160 197 119 102 119
0 0 0 0 0 0 0 0 0 0 0 0 0 0 79 143 165 431 515 550 549 634 514 380 259 246 170 128 148 194 245 183 219 225 195 277 446 479 475 363 300 221 359 412 355 238 324 156 126
0 0 0 0 0 0 0 0 0 0 0 0 0 25 48 298 392 624 583 516 478 674 554 469 321 345 268 258 241 200 189 218 268 292 390 415 533 599 615 512 454 304 528 388 129 72 148 84 185
0 0 0 0 0 0 0 0 0 0 0 0 3 0 293 507 642 715 706 576 477 557 802 711 588 501 521 442 445 360 317 306 347 411 422 588 640 584 488 537 586 434 298 235 102 53 96 46 67
0 0 0 0 0 0 0 0 0 0 0 0 0 4 26 617 799 773 738 740 597 589 720 976 887 739 727 795 746 647 474 469 499 514 600 642 732 899 796 524 368 532 344 237 85 79 25 6 7
0 0 0 0 0 0 0 0 0 0 0 0 0 0 0 404 891 885 799 776 823 780 686 834 1085 1022 868 941 1127 1075 1106 852 764 784 789 696 744 805 861 527 494 453 504 325 143 93 17 16 6
0 0 0 0 0 0 0 0 0 0 0 0 0 0 0 8 898 1012 959 862 816 911 884 826 998 1263 1185 1060 1081 1283 1253 1296 1371 1347 1315 1168 1090 969 773 469 710 699 463 354 213 123 198 128 120